Year,Month,Day,Hour,Minute,Value (Times are PST for windspeed in km/hr)
2012,01,22,00,00,13.80
2012,01,22,00,01,15.30
2012,01,22,00,02,14.50
2012,01,22,00,03,15.50
2012,01,22,00,04,12.00
2012,01,22,00,05,12.20
2012,01,22,00,06,9.40
2012,01,22,00,07,18.00
2012,01,22,00,08,12.10
2012,01,22,00,09,12.10
2012,01,22,00,10,10.40
2012,01,22,00,11,11.80
2012,01,22,00,12,12.90
2012,01,22,00,13,10.20
2012,01,22,00,14,13.00
2012,01,22,00,15,14.80
2012,01,22,00,16,17.20
2012,01,22,00,17,21.80
2012,01,22,00,18,14.90
2012,01,22,00,19,12.90
2012,01,22,00,20,17.90
2012,01,22,00,21,19.30
2012,01,22,00,22,14.50
2012,01,22,00,23,12.50
2012,01,22,00,24,15.50
2012,01,22,00,25,15.20
2012,01,22,00,26,10.10
2012,01,22,00,27,8.90
2012,01,22,00,28,16.40
2012,01,22,00,29,15.00
2012,01,22,00,30,15.80
2012,01,22,00,31,17.80
2012,01,22,00,32,14.10
2012,01,22,00,33,16.40
2012,01,22,00,34,13.40
2012,01,22,00,35,14.90
2012,01,22,00,36,17.30
2012,01,22,00,37,17.70
2012,01,22,00,38,17.80
2012,01,22,00,39,12.30
2012,01,22,00,40,11.60
2012,01,22,00,41,14.20
2012,01,22,00,42,13.90
2012,01,22,00,43,13.60
2012,01,22,00,44,9.70
2012,01,22,00,45,14.60
2012,01,22,00,46,18.10
2012,01,22,00,47,13.00
2012,01,22,00,48,14.50
2012,01,22,00,49,15.30
2012,01,22,00,50,16.70
2012,01,22,00,51,16.40
2012,01,22,00,52,16.60
2012,01,22,00,53,16.60
2012,01,22,00,54,17.90
2012,01,22,00,55,9.30
2012,01,22,00,56,11.20
2012,01,22,00,57,7.10
2012,01,22,00,58,8.20
2012,01,22,00,59,10.50
2012,01,22,01,00,15.30
2012,01,22,01,01,10.50
2012,01,22,01,02,11.30
2012,01,22,01,03,8.90
2012,01,22,01,04,20.30
2012,01,22,01,05,19.10
2012,01,22,01,06,18.70
2012,01,22,01,07,15.90
2012,01,22,01,08,12.40
2012,01,22,01,09,20.70
2012,01,22,01,10,21.30
2012,01,22,01,11,13.90
2012,01,22,01,12,14.90
2012,01,22,01,13,17.90
2012,01,22,01,14,14.70
2012,01,22,01,15,13.60
2012,01,22,01,16,12.40
2012,01,22,01,17,9.30
2012,01,22,01,18,11.90
2012,01,22,01,19,12.70
2012,01,22,01,20,10.70
2012,01,22,01,21,10.20
2012,01,22,01,22,15.00
2012,01,22,01,23,10.50
2012,01,22,01,24,8.30
2012,01,22,01,25,14.70
2012,01,22,01,26,13.00
2012,01,22,01,27,9.00
2012,01,22,01,28,7.40
2012,01,22,01,29,4.60
2012,01,22,01,30,9.20
2012,01,22,01,31,8.10
2012,01,22,01,32,12.20
2012,01,22,01,33,7.00
2012,01,22,01,34,12.70
2012,01,22,01,35,9.70
2012,01,22,01,36,9.30
2012,01,22,01,37,11.20
2012,01,22,01,38,9.00
2012,01,22,01,39,9.10
2012,01,22,01,40,4.20
2012,01,22,01,41,11.20
2012,01,22,01,42,5.60
2012,01,22,01,43,4.40
2012,01,22,01,44,2.60
2012,01,22,01,45,5.20
2012,01,22,01,46,6.40
2012,01,22,01,47,7.70
2012,01,22,01,48,7.60
2012,01,22,01,49,4.20
2012,01,22,01,50,5.20
2012,01,22,01,51,4.10
2012,01,22,01,52,3.90
2012,01,22,01,53,7.70
2012,01,22,01,54,1.30
2012,01,22,01,55,0.40
2012,01,22,01,56,0.90
2012,01,22,01,57,1.90
2012,01,22,01,58,4.10
2012,01,22,01,59,8.90
2012,01,22,02,00,7.60
2012,01,22,02,01,4.20
2012,01,22,02,02,5.10
2012,01,22,02,03,1.90
2012,01,22,02,04,1.40
2012,01,22,02,05,6.00
2012,01,22,02,06,4.90
2012,01,22,02,07,0.20
2012,01,22,02,08,3.60
2012,01,22,02,09,0.90
2012,01,22,02,10,1.30
2012,01,22,02,11,3.60
2012,01,22,02,12,4.10
2012,01,22,02,13,1.70
2012,01,22,02,14,4.20
2012,01,22,02,15,3.70
2012,01,22,02,16,0.10
2012,01,22,02,17,2.40
2012,01,22,02,18,6.10
2012,01,22,02,19,4.20
2012,01,22,02,20,4.00
2012,01,22,02,21,2.00
2012,01,22,02,22,0.80
2012,01,22,02,23,0.70
2012,01,22,02,24,4.60
2012,01,22,02,25,5.10
2012,01,22,02,26,5.80
2012,01,22,02,27,3.90
2012,01,22,02,28,3.50
2012,01,22,02,29,3.60
2012,01,22,02,30,2.00
2012,01,22,02,31,7.50
2012,01,22,02,32,2.60
2012,01,22,02,33,0.20
2012,01,22,02,34,0.70
2012,01,22,02,35,2.20
2012,01,22,02,36,2.10
2012,01,22,02,37,2.20
2012,01,22,02,38,3.00
2012,01,22,02,39,7.90
2012,01,22,02,40,6.50
2012,01,22,02,41,1.00
2012,01,22,02,42,3.80
2012,01,22,02,43,2.60
2012,01,22,02,44,0.70
2012,01,22,02,45,1.10
2012,01,22,02,46,3.90
2012,01,22,02,47,1.80
2012,01,22,02,48,3.40
2012,01,22,02,49,7.70
2012,01,22,02,50,5.10
2012,01,22,02,51,2.30
2012,01,22,02,52,3.10
2012,01,22,02,53,4.90
2012,01,22,02,54,0.10
2012,01,22,02,55,1.20
2012,01,22,02,56,12.70
2012,01,22,02,57,10.50
2012,01,22,02,58,6.00
2012,01,22,02,59,5.10
2012,01,22,03,00,8.90
2012,01,22,03,01,9.40
2012,01,22,03,02,8.10
2012,01,22,03,03,11.10
2012,01,22,03,04,7.00
2012,01,22,03,05,4.50
2012,01,22,03,06,3.80
2012,01,22,03,07,3.00
2012,01,22,03,08,3.80
2012,01,22,03,09,4.50
2012,01,22,03,10,3.30
2012,01,22,03,11,3.40
2012,01,22,03,12,5.30
2012,01,22,03,13,2.00
2012,01,22,03,14,1.10
2012,01,22,03,15,1.80
2012,01,22,03,16,0.20
2012,01,22,03,17,0.20
2012,01,22,03,18,3.10
2012,01,22,03,19,2.70
2012,01,22,03,20,2.00
2012,01,22,03,21,3.30
2012,01,22,03,22,2.80
2012,01,22,03,23,1.50
2012,01,22,03,24,0.50
2012,01,22,03,25,3.10
2012,01,22,03,26,2.80
2012,01,22,03,27,3.10
2012,01,22,03,28,2.30
2012,01,22,03,29,0.40
2012,01,22,03,30,0.40
2012,01,22,03,31,0.10
2012,01,22,03,32,0.60
2012,01,22,03,33,0.00
2012,01,22,03,34,0.00
2012,01,22,03,35,4.20
2012,01,22,03,36,10.00
2012,01,22,03,37,9.70
2012,01,22,03,38,6.70
2012,01,22,03,39,5.20
2012,01,22,03,40,1.90
2012,01,22,03,41,3.20
2012,01,22,03,42,1.60
2012,01,22,03,43,5.00
2012,01,22,03,44,17.50
2012,01,22,03,45,11.20
2012,01,22,03,46,9.20
2012,01,22,03,47,2.60
2012,01,22,03,48,4.30
2012,01,22,03,49,7.90
2012,01,22,03,50,9.90
2012,01,22,03,51,8.40
2012,01,22,03,52,8.60
2012,01,22,03,53,11.30
2012,01,22,03,54,14.90
2012,01,22,03,55,20.90
2012,01,22,03,56,16.10
2012,01,22,03,57,8.20
2012,01,22,03,58,8.30
2012,01,22,03,59,12.90
2012,01,22,04,00,10.70
2012,01,22,04,01,13.50
2012,01,22,04,02,17.50
2012,01,22,04,03,13.10
2012,01,22,04,04,10.90
2012,01,22,04,05,12.30
2012,01,22,04,06,16.30
2012,01,22,04,07,15.80
2012,01,22,04,08,20.00
2012,01,22,04,09,21.60
2012,01,22,04,10,16.10
2012,01,22,04,11,17.80
2012,01,22,04,12,17.40
2012,01,22,04,13,12.20
2012,01,22,04,14,13.30
2012,01,22,04,15,17.30
2012,01,22,04,16,18.60
2012,01,22,04,17,13.60
2012,01,22,04,18,17.70
2012,01,22,04,19,16.20
2012,01,22,04,20,14.40
2012,01,22,04,21,17.50
2012,01,22,04,22,16.70
2012,01,22,04,23,10.40
2012,01,22,04,24,16.70
2012,01,22,04,25,17.60
2012,01,22,04,26,19.10
2012,01,22,04,27,14.70
2012,01,22,04,28,18.20
2012,01,22,04,29,11.20
2012,01,22,04,30,18.50
2012,01,22,04,31,15.40
2012,01,22,04,32,15.10
2012,01,22,04,33,11.50
2012,01,22,04,34,12.50
2012,01,22,04,35,17.00
2012,01,22,04,36,17.00
2012,01,22,04,37,11.30
2012,01,22,04,38,10.20
2012,01,22,04,39,20.00
2012,01,22,04,40,17.40
2012,01,22,04,41,12.00
2012,01,22,04,42,13.30
2012,01,22,04,43,18.80
2012,01,22,04,44,16.70
2012,01,22,04,45,19.20
2012,01,22,04,46,13.90
2012,01,22,04,47,14.00
2012,01,22,04,48,28.90
2012,01,22,04,49,20.80
2012,01,22,04,50,18.80
2012,01,22,04,51,16.10
2012,01,22,04,52,15.40
2012,01,22,04,53,18.30
2012,01,22,04,54,13.20
2012,01,22,04,55,8.60
2012,01,22,04,56,10.30
2012,01,22,04,57,13.40
2012,01,22,04,58,18.50
2012,01,22,04,59,22.40
2012,01,22,05,00,16.30
2012,01,22,05,01,23.20
2012,01,22,05,02,22.30
2012,01,22,05,03,24.30
2012,01,22,05,04,20.50
2012,01,22,05,05,23.70
2012,01,22,05,06,19.00
2012,01,22,05,07,24.10
2012,01,22,05,08,23.50
2012,01,22,05,09,27.90
2012,01,22,05,10,26.70
2012,01,22,05,11,21.90
2012,01,22,05,12,23.00
2012,01,22,05,13,16.10
2012,01,22,05,14,21.00
2012,01,22,05,15,20.40
2012,01,22,05,16,22.90
2012,01,22,05,17,13.10
2012,01,22,05,18,20.20
2012,01,22,05,19,23.30
2012,01,22,05,20,25.40
2012,01,22,05,21,30.10
2012,01,22,05,22,20.30
2012,01,22,05,23,17.90
2012,01,22,05,24,19.60
2012,01,22,05,25,16.60
2012,01,22,05,26,17.50
2012,01,22,05,27,15.80
2012,01,22,05,28,24.60
2012,01,22,05,29,26.50
2012,01,22,05,30,29.20
2012,01,22,05,31,16.30
2012,01,22,05,32,10.00
2012,01,22,05,33,7.80
2012,01,22,05,34,15.00
2012,01,22,05,35,12.20
2012,01,22,05,36,14.90
2012,01,22,05,37,9.70
2012,01,22,05,38,8.50
2012,01,22,05,39,7.80
2012,01,22,05,40,14.30
2012,01,22,05,41,7.70
2012,01,22,05,42,11.60
2012,01,22,05,43,14.00
2012,01,22,05,44,22.30
2012,01,22,05,45,12.00
2012,01,22,05,46,10.10
2012,01,22,05,47,17.00
2012,01,22,05,48,26.90
2012,01,22,05,49,28.00
2012,01,22,05,50,21.10
2012,01,22,05,51,20.50
2012,01,22,05,52,17.30
2012,01,22,05,53,18.10
2012,01,22,05,54,19.50
2012,01,22,05,55,22.40
2012,01,22,05,56,29.70
2012,01,22,05,57,24.60
2012,01,22,05,58,22.80
2012,01,22,05,59,24.40
2012,01,22,06,00,23.90
2012,01,22,06,01,27.20
2012,01,22,06,02,22.20
2012,01,22,06,03,17.50
2012,01,22,06,04,25.70
2012,01,22,06,05,30.90
2012,01,22,06,06,22.90
2012,01,22,06,07,22.10
2012,01,22,06,08,18.30
2012,01,22,06,09,27.50
2012,01,22,06,10,30.90
2012,01,22,06,11,18.50
2012,01,22,06,12,24.00
2012,01,22,06,13,26.60
2012,01,22,06,14,25.60
2012,01,22,06,15,24.40
2012,01,22,06,16,20.00
2012,01,22,06,17,18.50
2012,01,22,06,18,21.10
2012,01,22,06,19,22.10
2012,01,22,06,20,15.90
2012,01,22,06,21,33.10
2012,01,22,06,22,32.40
2012,01,22,06,23,18.90
2012,01,22,06,24,23.40
2012,01,22,06,25,24.00
2012,01,22,06,26,25.00
2012,01,22,06,27,22.30
2012,01,22,06,28,26.00
2012,01,22,06,29,26.20
2012,01,22,06,30,16.10
2012,01,22,06,31,24.10
2012,01,22,06,32,22.70
2012,01,22,06,33,24.90
2012,01,22,06,34,29.90
2012,01,22,06,35,23.10
2012,01,22,06,36,17.80
2012,01,22,06,37,21.40
2012,01,22,06,38,26.50
2012,01,22,06,39,33.60
2012,01,22,06,40,34.00
2012,01,22,06,41,45.70
2012,01,22,06,42,33.30
2012,01,22,06,43,28.70
2012,01,22,06,44,39.10
2012,01,22,06,45,36.40
2012,01,22,06,46,28.20
2012,01,22,06,47,27.00
2012,01,22,06,48,34.40
2012,01,22,06,49,26.80
2012,01,22,06,50,32.00
2012,01,22,06,51,25.90
2012,01,22,06,52,35.80
2012,01,22,06,53,35.20
2012,01,22,06,54,32.70
2012,01,22,06,55,29.50
2012,01,22,06,56,40.80
2012,01,22,06,57,35.80
2012,01,22,06,58,41.20
2012,01,22,06,59,35.90
2012,01,22,07,00,30.50
2012,01,22,07,01,44.00
2012,01,22,07,02,36.30
2012,01,22,07,03,36.30
2012,01,22,07,04,31.90
2012,01,22,07,05,32.10
2012,01,22,07,06,31.40
2012,01,22,07,07,28.00
2012,01,22,07,08,31.30
2012,01,22,07,09,27.30
2012,01,22,07,10,33.10
2012,01,22,07,11,40.40
2012,01,22,07,12,37.20
2012,01,22,07,13,32.90
2012,01,22,07,14,36.60
2012,01,22,07,15,30.00
2012,01,22,07,16,29.80
2012,01,22,07,17,37.10
2012,01,22,07,18,36.10
2012,01,22,07,19,30.30
2012,01,22,07,20,34.80
2012,01,22,07,21,29.90
2012,01,22,07,22,35.10
2012,01,22,07,23,24.60
2012,01,22,07,24,27.80
2012,01,22,07,25,25.80
2012,01,22,07,26,22.00
2012,01,22,07,27,29.30
2012,01,22,07,28,24.30
2012,01,22,07,29,24.30
2012,01,22,07,30,25.50
2012,01,22,07,31,30.90
2012,01,22,07,32,24.10
2012,01,22,07,33,27.10
2012,01,22,07,34,37.00
2012,01,22,07,35,34.80
2012,01,22,07,36,25.30
2012,01,22,07,37,35.10
2012,01,22,07,38,30.70
2012,01,22,07,39,30.80
2012,01,22,07,40,32.30
2012,01,22,07,41,30.20
2012,01,22,07,42,25.30
2012,01,22,07,43,30.30
2012,01,22,07,44,29.60
2012,01,22,07,45,29.70
2012,01,22,07,46,35.20
2012,01,22,07,47,26.70
2012,01,22,07,48,26.40
2012,01,22,07,49,26.60
2012,01,22,07,50,25.30
2012,01,22,07,51,20.40
2012,01,22,07,52,21.50
2012,01,22,07,53,25.80
2012,01,22,07,54,24.90
2012,01,22,07,55,24.90
2012,01,22,07,56,38.60
2012,01,22,07,57,36.20
2012,01,22,07,58,38.10
2012,01,22,07,59,28.30
2012,01,22,08,00,26.80
2012,01,22,08,01,24.90
2012,01,22,08,02,32.90
2012,01,22,08,03,22.40
2012,01,22,08,04,24.90
2012,01,22,08,05,27.70
2012,01,22,08,06,32.60
2012,01,22,08,07,23.90
2012,01,22,08,08,34.10
2012,01,22,08,09,33.10
2012,01,22,08,10,30.70
2012,01,22,08,11,19.90
2012,01,22,08,12,30.50
2012,01,22,08,13,22.80
2012,01,22,08,14,28.30
2012,01,22,08,15,32.80
2012,01,22,08,16,27.00
2012,01,22,08,17,28.40
2012,01,22,08,18,28.50
2012,01,22,08,19,22.70
2012,01,22,08,20,27.40
2012,01,22,08,21,40.20
2012,01,22,08,22,26.50
2012,01,22,08,23,27.10
2012,01,22,08,24,29.90
2012,01,22,08,25,26.60
2012,01,22,08,26,44.80
2012,01,22,08,27,38.80
2012,01,22,08,28,35.80
2012,01,22,08,29,29.10
2012,01,22,08,30,34.40
2012,01,22,08,31,34.60
2012,01,22,08,32,27.10
2012,01,22,08,33,31.90
2012,01,22,08,34,32.30
2012,01,22,08,35,34.70
2012,01,22,08,36,31.30
2012,01,22,08,37,31.70
2012,01,22,08,38,29.50
2012,01,22,08,39,31.00
2012,01,22,08,40,51.80
2012,01,22,08,41,37.10
2012,01,22,08,42,38.30
2012,01,22,08,43,38.10
2012,01,22,08,44,33.40
2012,01,22,08,45,34.40
2012,01,22,08,46,41.00
2012,01,22,08,47,31.30
2012,01,22,08,48,28.20
2012,01,22,08,49,35.40
2012,01,22,08,50,43.10
2012,01,22,08,51,40.30
2012,01,22,08,52,31.30
2012,01,22,08,53,30.70
2012,01,22,08,54,31.20
2012,01,22,08,55,31.90
2012,01,22,08,56,40.90
2012,01,22,08,57,25.10
2012,01,22,08,58,34.00
2012,01,22,08,59,33.50
2012,01,22,09,00,30.80
2012,01,22,09,01,41.50
2012,01,22,09,02,35.20
2012,01,22,09,03,25.00
2012,01,22,09,04,39.30
2012,01,22,09,05,34.40
2012,01,22,09,06,41.40
2012,01,22,09,07,36.10
2012,01,22,09,08,37.80
2012,01,22,09,09,45.80
2012,01,22,09,10,45.40
2012,01,22,09,11,46.80
2012,01,22,09,12,57.20
2012,01,22,09,13,42.80
2012,01,22,09,14,39.00
2012,01,22,09,15,36.40
2012,01,22,09,16,37.20
2012,01,22,09,17,39.80
2012,01,22,09,18,30.60
2012,01,22,09,19,40.30
2012,01,22,09,20,35.80
2012,01,22,09,21,34.90
2012,01,22,09,22,49.90
2012,01,22,09,23,42.10
2012,01,22,09,24,37.20
2012,01,22,09,25,37.30
2012,01,22,09,26,43.20
2012,01,22,09,27,34.00
2012,01,22,09,28,42.30
2012,01,22,09,29,34.20
2012,01,22,09,30,37.70
2012,01,22,09,31,37.80
2012,01,22,09,32,31.90
2012,01,22,09,33,40.80
2012,01,22,09,34,38.40
2012,01,22,09,35,38.50
2012,01,22,09,36,35.30
2012,01,22,09,37,39.40
2012,01,22,09,38,38.90
2012,01,22,09,39,45.90
2012,01,22,09,40,29.10
2012,01,22,09,41,42.20
2012,01,22,09,42,45.60
2012,01,22,09,43,37.00
2012,01,22,09,44,39.70
2012,01,22,09,45,39.80
2012,01,22,09,46,46.00
2012,01,22,09,47,33.90
2012,01,22,09,48,29.30
2012,01,22,09,49,30.70
2012,01,22,09,50,41.80
2012,01,22,09,51,45.70
2012,01,22,09,52,42.50
2012,01,22,09,53,44.80
2012,01,22,09,54,47.20
2012,01,22,09,55,39.90
2012,01,22,09,56,45.80
2012,01,22,09,57,42.40
2012,01,22,09,58,38.20
2012,01,22,09,59,48.00
2012,01,22,10,00,45.90
2012,01,22,10,01,49.00
2012,01,22,10,02,41.70
2012,01,22,10,03,48.70
2012,01,22,10,04,52.00
2012,01,22,10,05,32.40
2012,01,22,10,06,36.90
2012,01,22,10,07,36.30
2012,01,22,10,08,40.50
2012,01,22,10,09,42.60
2012,01,22,10,10,44.20
2012,01,22,10,11,50.80
2012,01,22,10,12,45.00
2012,01,22,10,13,32.70
2012,01,22,10,14,30.90
2012,01,22,10,15,50.60
2012,01,22,10,16,50.20
2012,01,22,10,17,42.30
2012,01,22,10,18,43.50
2012,01,22,10,19,34.40
2012,01,22,10,20,40.50
2012,01,22,10,21,43.30
2012,01,22,10,22,45.00
2012,01,22,10,23,36.60
2012,01,22,10,24,41.00
2012,01,22,10,25,42.80
2012,01,22,10,26,36.80
2012,01,22,10,27,45.90
2012,01,22,10,28,42.80
2012,01,22,10,29,38.40
2012,01,22,10,30,42.60
2012,01,22,10,31,48.40
2012,01,22,10,32,33.20
2012,01,22,10,33,39.10
2012,01,22,10,34,43.50
2012,01,22,10,35,49.60
2012,01,22,10,36,53.00
2012,01,22,10,37,37.50
2012,01,22,10,38,45.90
2012,01,22,10,39,41.70
2012,01,22,10,40,42.30
2012,01,22,10,41,40.40
2012,01,22,10,42,34.90
2012,01,22,10,43,25.80
2012,01,22,10,44,47.70
2012,01,22,10,45,43.10
2012,01,22,10,46,46.20
2012,01,22,10,47,47.50
2012,01,22,10,48,44.60
2012,01,22,10,49,35.70
2012,01,22,10,50,45.20
2012,01,22,10,51,49.50
2012,01,22,10,52,50.30
2012,01,22,10,53,42.60
2012,01,22,10,54,34.90
2012,01,22,10,55,43.10
2012,01,22,10,56,42.00
2012,01,22,10,57,42.30
2012,01,22,10,58,48.00
2012,01,22,10,59,48.10
2012,01,22,11,00,43.20
2012,01,22,11,01,43.60
2012,01,22,11,02,38.30
2012,01,22,11,03,35.60
2012,01,22,11,04,44.80
2012,01,22,11,05,35.50
2012,01,22,11,06,40.60
2012,01,22,11,07,53.60
2012,01,22,11,08,41.10
2012,01,22,11,09,46.60
2012,01,22,11,10,40.80
2012,01,22,11,11,33.80
2012,01,22,11,12,32.20
2012,01,22,11,13,34.40
2012,01,22,11,14,38.00
2012,01,22,11,15,34.90
2012,01,22,11,16,50.70
2012,01,22,11,17,34.00
2012,01,22,11,18,45.40
2012,01,22,11,19,53.60
2012,01,22,11,20,37.10
2012,01,22,11,21,33.90
2012,01,22,11,22,29.50
2012,01,22,11,23,28.00
2012,01,22,11,24,29.30
2012,01,22,11,25,28.10
2012,01,22,11,26,37.00
2012,01,22,11,27,26.50
2012,01,22,11,28,32.30
2012,01,22,11,29,36.10
2012,01,22,11,30,37.70
2012,01,22,11,31,33.50
2012,01,22,11,32,42.80
2012,01,22,11,33,30.50
2012,01,22,11,34,40.50
2012,01,22,11,35,34.00
2012,01,22,11,36,49.00
2012,01,22,11,37,32.70
2012,01,22,11,38,43.70
2012,01,22,11,39,40.80
2012,01,22,11,40,30.50
2012,01,22,11,41,36.20
2012,01,22,11,42,46.60
2012,01,22,11,43,39.90
2012,01,22,11,44,38.70
2012,01,22,11,45,41.10
2012,01,22,11,46,35.30
2012,01,22,11,47,26.60
2012,01,22,11,48,33.60
2012,01,22,11,49,35.10
2012,01,22,11,50,41.10
2012,01,22,11,51,47.50
2012,01,22,11,52,34.40
2012,01,22,11,53,36.10
2012,01,22,11,54,36.20
2012,01,22,11,55,35.30
2012,01,22,11,56,39.80
2012,01,22,11,57,49.20
2012,01,22,11,58,45.30
2012,01,22,11,59,37.20
2012,01,22,12,00,36.50
2012,01,22,12,01,37.40
2012,01,22,12,02,36.00
2012,01,22,12,03,33.50
2012,01,22,12,04,44.00
2012,01,22,12,05,44.80
2012,01,22,12,06,34.30
2012,01,22,12,07,38.00
2012,01,22,12,08,44.50
2012,01,22,12,09,46.30
2012,01,22,12,10,35.20
2012,01,22,12,11,41.30
2012,01,22,12,12,46.20
2012,01,22,12,13,41.50
2012,01,22,12,14,33.40
2012,01,22,12,15,32.80
2012,01,22,12,16,41.80
2012,01,22,12,17,41.80
2012,01,22,12,18,43.40
2012,01,22,12,19,46.40
2012,01,22,12,20,45.50
2012,01,22,12,21,42.50
2012,01,22,12,22,43.80
2012,01,22,12,23,36.60
2012,01,22,12,24,46.50
2012,01,22,12,25,35.20
2012,01,22,12,26,35.60
2012,01,22,12,27,42.00
2012,01,22,12,28,43.10
2012,01,22,12,29,37.70
2012,01,22,12,30,38.90
2012,01,22,12,31,39.30
2012,01,22,12,32,38.30
2012,01,22,12,33,42.60
2012,01,22,12,34,48.10
2012,01,22,12,35,42.20
2012,01,22,12,36,44.70
2012,01,22,12,37,52.30
2012,01,22,12,38,45.80
2012,01,22,12,39,45.80
2012,01,22,12,40,48.00
2012,01,22,12,41,48.80
2012,01,22,12,42,53.80
2012,01,22,12,43,47.00
2012,01,22,12,44,46.20
2012,01,22,12,45,40.20
2012,01,22,12,46,46.90
2012,01,22,12,47,45.10
2012,01,22,12,48,43.30
2012,01,22,12,49,31.10
2012,01,22,12,50,27.40
2012,01,22,12,51,32.40
2012,01,22,12,52,32.80
2012,01,22,12,53,29.40
2012,01,22,12,54,23.50
2012,01,22,12,55,40.50
2012,01,22,12,56,41.20
2012,01,22,12,57,38.80
2012,01,22,12,58,34.10
2012,01,22,12,59,21.80
2012,01,22,13,00,28.90
2012,01,22,13,01,26.90
2012,01,22,13,02,35.30
2012,01,22,13,03,31.60
2012,01,22,13,04,38.50
2012,01,22,13,05,33.60
2012,01,22,13,06,33.60
2012,01,22,13,07,35.10
2012,01,22,13,08,34.40
2012,01,22,13,09,37.30
2012,01,22,13,10,32.50
2012,01,22,13,11,40.00
2012,01,22,13,12,39.30
2012,01,22,13,13,28.30
2012,01,22,13,14,24.60
2012,01,22,13,15,35.40
2012,01,22,13,16,35.60
2012,01,22,13,17,36.20
2012,01,22,13,18,35.00
2012,01,22,13,19,24.90
2012,01,22,13,20,26.90
2012,01,22,13,21,39.50
2012,01,22,13,22,34.30
2012,01,22,13,23,32.00
2012,01,22,13,24,33.00
2012,01,22,13,25,50.30
2012,01,22,13,26,34.50
2012,01,22,13,27,41.00
2012,01,22,13,28,43.60
2012,01,22,13,29,41.50
2012,01,22,13,30,46.70
2012,01,22,13,31,41.40
2012,01,22,13,32,31.70
2012,01,22,13,33,32.30
2012,01,22,13,34,38.90
2012,01,22,13,35,33.60
2012,01,22,13,36,35.50
2012,01,22,13,37,39.00
2012,01,22,13,38,40.10
2012,01,22,13,39,39.10
2012,01,22,13,40,37.90
2012,01,22,13,41,25.50
2012,01,22,13,42,28.10
2012,01,22,13,43,44.70
2012,01,22,13,44,28.60
2012,01,22,13,45,28.10
2012,01,22,13,46,32.10
2012,01,22,13,47,31.80
2012,01,22,13,48,38.10
2012,01,22,13,49,36.20
2012,01,22,13,50,32.00
2012,01,22,13,51,31.50
2012,01,22,13,52,41.80
2012,01,22,13,53,36.00
2012,01,22,13,54,32.30
2012,01,22,13,55,41.80
2012,01,22,13,56,33.50
2012,01,22,13,57,32.90
2012,01,22,13,58,33.40
2012,01,22,13,59,42.10
2012,01,22,14,00,32.00
2012,01,22,14,01,35.80
2012,01,22,14,02,46.20
2012,01,22,14,03,30.60
2012,01,22,14,04,27.10
2012,01,22,14,05,36.50
2012,01,22,14,06,32.30
2012,01,22,14,07,29.80
2012,01,22,14,08,32.70
2012,01,22,14,09,25.50
2012,01,22,14,10,34.30
2012,01,22,14,11,33.80
2012,01,22,14,12,38.40
2012,01,22,14,13,37.00
2012,01,22,14,14,30.90
2012,01,22,14,15,37.40
2012,01,22,14,16,36.40
2012,01,22,14,17,43.30
2012,01,22,14,18,41.40
2012,01,22,14,19,29.80
2012,01,22,14,20,25.60
2012,01,22,14,21,28.60
2012,01,22,14,22,38.40
2012,01,22,14,23,29.00
2012,01,22,14,24,32.40
2012,01,22,14,25,28.70
2012,01,22,14,26,32.00
2012,01,22,14,27,26.20
2012,01,22,14,28,27.40
2012,01,22,14,29,33.60
2012,01,22,14,30,30.40
2012,01,22,14,31,22.70
2012,01,22,14,32,25.60
2012,01,22,14,33,28.40
2012,01,22,14,34,28.40
2012,01,22,14,35,29.70
2012,01,22,14,36,25.00
2012,01,22,14,37,32.80
2012,01,22,14,38,32.60
2012,01,22,14,39,26.30
2012,01,22,14,40,44.30
2012,01,22,14,41,36.60
2012,01,22,14,42,31.90
2012,01,22,14,43,38.00
2012,01,22,14,44,35.50
2012,01,22,14,45,37.50
2012,01,22,14,46,30.60
2012,01,22,14,47,32.10
2012,01,22,14,48,39.00
2012,01,22,14,49,32.90
2012,01,22,14,50,27.80
2012,01,22,14,51,35.00
2012,01,22,14,52,37.50
2012,01,22,14,53,36.20
2012,01,22,14,54,31.90
2012,01,22,14,55,32.80
2012,01,22,14,56,32.90
2012,01,22,14,57,35.60
2012,01,22,14,58,25.70
2012,01,22,14,59,35.10
2012,01,22,15,00,35.60
2012,01,22,15,01,28.40
2012,01,22,15,02,28.00
2012,01,22,15,03,31.50
2012,01,22,15,04,28.10
2012,01,22,15,05,24.50
2012,01,22,15,06,34.30
2012,01,22,15,07,33.70
2012,01,22,15,08,29.10
2012,01,22,15,09,26.00
2012,01,22,15,10,40.10
2012,01,22,15,11,32.50
2012,01,22,15,12,30.50
2012,01,22,15,13,27.40
2012,01,22,15,14,28.10
2012,01,22,15,15,26.20
2012,01,22,15,16,26.80
2012,01,22,15,17,31.60
2012,01,22,15,18,36.40
2012,01,22,15,19,30.50
2012,01,22,15,20,33.20
2012,01,22,15,21,31.60
2012,01,22,15,22,35.60
2012,01,22,15,23,31.40
2012,01,22,15,24,34.20
2012,01,22,15,25,34.00
2012,01,22,15,26,29.60
2012,01,22,15,27,26.70
2012,01,22,15,28,29.90
2012,01,22,15,29,28.60
2012,01,22,15,30,32.70
2012,01,22,15,31,38.90
2012,01,22,15,32,36.20
2012,01,22,15,33,38.90
2012,01,22,15,34,29.80
2012,01,22,15,35,28.60
2012,01,22,15,36,23.50
2012,01,22,15,37,28.90
2012,01,22,15,38,33.30
2012,01,22,15,39,29.80
2012,01,22,15,40,32.60
2012,01,22,15,41,29.60
2012,01,22,15,42,29.00
2012,01,22,15,43,29.70
2012,01,22,15,44,33.70
2012,01,22,15,45,28.90
2012,01,22,15,46,30.70
2012,01,22,15,47,24.10
2012,01,22,15,48,30.50
2012,01,22,15,49,22.80
2012,01,22,15,50,27.60
2012,01,22,15,51,31.30
2012,01,22,15,52,35.60
2012,01,22,15,53,21.80
2012,01,22,15,54,20.40
2012,01,22,15,55,26.40
2012,01,22,15,56,30.70
2012,01,22,15,57,22.90
2012,01,22,15,58,20.50
2012,01,22,15,59,24.20
2012,01,22,16,00,27.80
2012,01,22,16,01,29.00
2012,01,22,16,02,20.20
2012,01,22,16,03,26.50
2012,01,22,16,04,20.60
2012,01,22,16,05,22.20
2012,01,22,16,06,19.30
2012,01,22,16,07,15.20
2012,01,22,16,08,16.20
2012,01,22,16,09,10.70
2012,01,22,16,10,7.30
2012,01,22,16,11,5.30
2012,01,22,16,12,5.60
2012,01,22,16,13,8.60
2012,01,22,16,14,7.50
2012,01,22,16,15,6.10
2012,01,22,16,16,8.10
2012,01,22,16,17,6.90
2012,01,22,16,18,0.20
2012,01,22,16,19,0.10
2012,01,22,16,20,6.90
2012,01,22,16,21,2.70
2012,01,22,16,22,6.20
2012,01,22,16,23,4.30
2012,01,22,16,24,2.50
2012,01,22,16,25,2.60
2012,01,22,16,26,4.60
2012,01,22,16,27,9.60
2012,01,22,16,28,6.80
2012,01,22,16,29,5.60
2012,01,22,16,30,3.20
2012,01,22,16,31,15.30
2012,01,22,16,32,14.30
2012,01,22,16,33,10.80
2012,01,22,16,34,13.20
2012,01,22,16,35,12.50
2012,01,22,16,36,13.90
2012,01,22,16,37,14.40
2012,01,22,16,38,17.30
2012,01,22,16,39,23.80
2012,01,22,16,40,21.10
2012,01,22,16,41,15.40
2012,01,22,16,42,14.20
2012,01,22,16,43,11.30
2012,01,22,16,44,16.90
2012,01,22,16,45,13.90
2012,01,22,16,46,16.80
2012,01,22,16,47,14.00
2012,01,22,16,48,11.70
2012,01,22,16,49,11.40
2012,01,22,16,50,12.30
2012,01,22,16,51,13.20
2012,01,22,16,52,17.00
2012,01,22,16,53,28.10
2012,01,22,16,54,20.40
2012,01,22,16,55,17.50
2012,01,22,16,56,23.10
2012,01,22,16,57,22.60
2012,01,22,16,58,20.90
2012,01,22,16,59,21.80
2012,01,22,17,00,21.90
2012,01,22,17,01,19.70
2012,01,22,17,02,19.90
2012,01,22,17,03,19.30
2012,01,22,17,04,18.90
2012,01,22,17,05,21.20
2012,01,22,17,06,26.10
2012,01,22,17,07,27.50
2012,01,22,17,08,20.70
2012,01,22,17,09,18.50
2012,01,22,17,10,26.20
2012,01,22,17,11,20.30
2012,01,22,17,12,18.30
2012,01,22,17,13,24.50
2012,01,22,17,14,15.00
2012,01,22,17,15,24.50
2012,01,22,17,16,14.60
2012,01,22,17,17,13.90
2012,01,22,17,18,15.30
2012,01,22,17,19,11.20
2012,01,22,17,20,16.50
2012,01,22,17,21,15.70
2012,01,22,17,22,16.60
2012,01,22,17,23,20.80
2012,01,22,17,24,15.40
2012,01,22,17,25,15.40
2012,01,22,17,26,17.40